Back to catalog

THORAD DELTA 1 DEB

AliveSSO
NORAD 8555·DEBRIS·🇺🇸 United States

Launched Nov 15, 1974 from Vandenberg Space Force Base

Loading…

Next Passes (next 24 hours)

TLE

FreshSource: Space-Track

Epoch: Sep 14, 2026, 13:34 UTC

1 08555U 74089CS  26257.56592435  .00000764  00000-0  48360-2 0  9992
2 08555 101.4124  11.2760 0067737 216.7725 153.8724 12.56468571364654

Track THORAD DELTA 1 DEB in real time with AllMySat

Download on the App Store